Theta_e
299 299 299 300 300 299 298 298 297 297 297 296 296 296 296 296 295 296 296 296 297 298 299 299 300 300 300 301 301 301 301 301 300 300 300 300 300 300 300 301 301 301 301 302 302 302 302 302 302 302 302 302 302 302 302 302 302 302 302 301 301 301 301 301 301 301 301 300 300 300 299 299 298 297 296 296 296 295 295 295 295 295 295 295 297 299
299 299 298 299 299 299 298 298 298 297 297 296 297 297 297 296 295 295 295 295 295 296 296 297 297 298 298 299 300 300 300 300 300 300 299 300 299 299 299 299 300 300 300 300 300 301 301 301 301 301 301 301 301 301 301 301 300 300 300 299 299 299 299 299 299 299 299 298 298 297 297 296 295 295 295 295 295 295 295 294 294 294 295 296 298 299
299 299 298 298 298 298 297 297 297 297 296 296 296 296 296 296 295 295 295 295 295 295 295 295 296 296 297 297 298 298 298 299 299 298 299 299 299 299 299 300 300 300 300 299 299 299 299 299 299 299 299 299 299 299 299 299 298 298 298 298 297 297 297 297 296 296 296 295 295 294 293 293 293 293 293 293 293 293 293 293 294 294 296 297 299 299
299 298 298 298 297 297 296 296 296 296 296 296 296 296 296 295 295 295 295 295 295 294 295 295 295 295 296 296 296 296 296 297 297 297 297 297 297 297 298 299 299 299 299 299 299 299 299 298 298 297 297 297 296 296 296 296 296 296 296 295 295 295 294 294 293 293 293 292 292 292 291 292 292 292 292 292 292 293 293 294 294 296 297 298 299 299
298 298 297 297 297 296 296 296 295 295 295 295 295 295 295 295 295 294 294 294 294 294 294 294 294 294 294 295 295 296 296 296 296 295 295 295 295 295 295 296 296 297 297 297 298 298 297 297 297 296 295 295 295 294 294 294 293 293 293 293 292 292 292 292 291 291 291 291 291 291 291 291 291 291 291 292 292 293 294 294 295 296 297 298 298 299
297 297 297 297 296 296 296 295 295 295 294 294 294 294 294 294 294 294 294 294 294 294 294 294 294 293 294 294 294 294 294 294 294 294 294 294 294 294 294 294 294 294 294 294 295 295 295 295 295 295 294 294 294 293 292 292 292 292 292 292 291 291 291 291 291 291 291 291 291 291 291 291 291 291 291 292 292 293 294 295 295 296 296 297 298 298
297 296 296 296 295 295 295 295 295 294 294 294 294 294 294 294 294 294 294 294 294 294 294 294 294 293 294 294 294 294 293 293 293 293 293 293 294 294 294 294 294 294 294 294 294 294 294 293 293 293 293 293 293 292 292 292 292 292 292 292 292 292 291 291 291 291 291 291 291 291 291 291 291 291 291 291 292 292 293 294 295 295 296 296 297 297
296 295 295 295 295 295 295 294 294 294 294 294 294 294 294 294 294 295 294 294 294 293 293 293 294 294 294 294 294 294 293 293 293 293 293 293 293 293 293 293 294 294 294 294 294 294 294 293 293 293 292 293 292 292 292 292 292 292 292 292 292 292 292 292 291 291 291 291 291 291 291 291 291 292 292 292 292 292 293 293 294 294 295 295 296 296
295 295 295 295 295 295 295 294 294 294 294 294 294 294 294 294 294 294 294 294 293 293 293 293 293 294 294 294 294 294 293 293 293 293 293 293 293 293 293 293 293 293 293 293 293 293 293 293 293 293 293 292 293 293 293 293 293 293 293 292 292 292 292 292 292 292 292 292 292 292 292 292 292 293 293 293 293 293 293 293 293 294 294 294 295 295
295 295 295 295 295 295 295 294 294 294 294 294 294 294 294 294 294 293 293 293 293 293 293 293 294 294 294 294 294 294 293 293 293 293 293 293 293 293 293 293 293 293 293 293 293 293 293 293 293 293 293 293 293 293 293 293 293 293 293 293 292 292 292 292 292 292 293 293 293 293 293 293 293 293 293 293 293 293 292 292 293 293 293 294 294 295
295 295 295 295 295 295 294 294 294 294 294 294 294 294 293 293 293 293 293 293 293 293 294 294 294 294 295 294 294 294 293 293 293 293 293 293 293 293 293 293 293 293 293 293 293 293 293 293 293 293 293 293 293 293 293 293 293 293 293 293 293 293 293 293 293 293 293 293 293 293 293 293 293 294 294 294 293 293 292 292 292 292 293 293 294 295
295 295 295 295 294 294 293 293 293 293 293 294 294 294 293 293 293 292 292 292 293 293 294 294 295 295 295 295 294 294 293 293 293 293 293 293 293 292 292 292 292 293 293 293 293 293 293 293 293 293 293 293 293 293 293 293 293 293 293 293 293 293 293 293 293 294 294 294 293 293 293 293 293 294 294 294 293 293 293 292 292 292 293 293 294 294
294 295 295 295 294 294 293 292 292 292 292 293 293 293 293 293 292 292 292 293 293 294 294 294 295 295 295 295 295 294 294 293 293 293 293 293 292 292 292 292 292 292 293 293 293 293 293 293 294 294 294 294 294 293 293 293 293 293 293 293 293 294 294 294 294 294 294 294 294 293 293 293 293 293 293 293 293 293 293 293 293 293 293 293 294 294
294 295 295 295 295 294 293 292 292 292 292 293 293 293 293 292 292 292 293 293 294 294 294 294 294 294 294 294 294 294 294 293 293 293 293 292 292 292 292 292 292 292 293 293 293 293 293 293 293 294 294 293 293 293 293 293 293 293 293 294 294 294 294 294 294 294 294 293 293 293 293 293 293 293 293 293 293 293 293 293 293 293 293 293 294 294
294 294 294 294 294 294 293 292 292 292 293 293 293 292 292 292 292 292 293 293 294 294 294 294 294 294 294 293 293 293 293 293 293 293 292 292 292 292 292 292 292 292 293 293 293 293 293 293 293 293 293 293 293 293 293 293 293 293 293 293 293 293 293 293 293 293 293 293 293 293 293 293 293 293 293 293 293 293 293 293 293 293 293 293 293 294
294 294 293 293 293 293 293 293 293 293 293 292 292 291 291 291 291 292 292 293 293 294 294 294 293 293 293 293 293 293 292 292 292 292 292 292 292 292 292 292 292 292 293 293 293 293 293 292 292 292 292 292 292 292 292 292 292 292 292 292 292 292 292 292 292 292 292 292 292 293 293 293 293 293 293 293 293 293 293 293 293 293 293 293 293 293
293 293 293 292 292 292 293 293 293 293 292 292 291 290 290 290 291 292 292 292 293 293 293 293 292 291 292 292 292 292 292 292 292 292 292 292 292 292 292 292 292 292 292 292 292 292 292 292 292 292 291 291 291 291 291 291 291 291 291 291 291 291 291 291 292 292 292 293 293 293 293 293 293 293 293 293 293 293 293 293 293 293 293 293 293 293
293 293 292 292 292 292 293 293 293 292 292 291 291 290 290 291 291 292 292 292 292 292 292 293 291 291 291 292 292 292 292 292 292 292 292 292 292 292 292 291 292 292 292 292 292 292 292 291 291 291 291 291 291 291 291 291 291 291 291 291 291 291 291 291 292 292 293 293 293 293 293 293 293 293 293 293 293 293 292 292 292 292 292 293 293 293
292 293 293 293 293 293 293 293 293 292 292 292 291 291 291 291 291 291 292 292 292 292 292 292 292 292 292 293 292 292 292 292 292 292 292 292 292 292 291 291 291 291 291 291 291 291 291 291 291 291 290 290 290 290 290 290 290 291 290 291 291 291 291 291 292 292 292 292 292 292 292 292 292 292 292 292 292 292 292 292 292 292 292 292 293 293
292 292 293 293 292 292 292 293 293 292 292 291 291 291 291 291 292 292 292 292 292 292 292 292 292 292 292 292 292 292 292 292 292 292 292 292 292 292 291 291 291 291 291 291 290 290 290 290 290 290 290 290 290 290 290 290 290 290 290 290 290 291 291 291 291 291 291 291 292 292 291 291 291 291 291 291 291 291 291 291 291 292 292 292 292 293
293 292 293 293 293 293 292 292 292 292 291 291 290 290 290 291 291 292 292 292 292 292 292 292 292 292 292 292 292 292 292 292 292 292 292 292 292 292 291 291 291 291 290 290 290 290 290 290 290 290 290 290 290 290 290 290 290 290 290 290 290 290 291 291 291 291 291 291 291 291 290 290 290 290 290 290 290 290 290 291 291 291 292 292 292 292
293 293 293 293 293 293 292 292 292 292 291 290 290 290 290 291 291 292 291 292 292 292 292 292 292 292 292 292 292 292 291 291 291 291 292 292 292 291 291 290 290 290 290 289 289 289 289 289 289 289 290 290 290 290 290 289 289 290 290 290 290 290 290 290 290 290 290 290 290 290 290 290 290 290 290 290 290 290 290 291 291 291 292 292 292 292
293 293 293 293 293 293 292 292 292 291 291 290 290 290 290 291 291 291 291 292 292 292 292 292 292 292 292 292 291 291 290 290 290 291 292 292 291 290 289 289 289 289 289 289 289 289 289 289 289 289 289 289 289 289 289 289 289 289 289 289 289 289 289 289 289 289 289 289 289 289 289 289 289 289 289 289 289 290 290 291 291 291 291 292 292 292
293 292 292 292 292 292 292 292 292 292 291 291 291 291 291 291 291 292 292 292 292 292 292 292 291 291 291 291 291 290 290 290 290 290 291 291 290 289 288 289 289 289 289 289 289 289 289 289 289 289 289 289 289 289 289 289 289 289 289 289 289 289 289 289 289 289 289 289 289 289 288 289 289 289 289 289 289 290 290 290 291 291 291 291 291 291
292 292 292 292 292 292 292 292 292 292 292 292 292 291 291 292 292 292 292 291 291 291 290 290 290 290 290 291 290 289 289 289 289 289 289 289 289 289 288 288 288 288 288 288 288 289 289 289 289 288 288 288 288 288 288 288 289 289 289 288 288 288 288 288 288 288 288 288 288 288 288 288 288 288 288 289 289 290 290 290 290 291 291 291 290 290
292 292 292 292 292 292 292 292 292 292 291 291 291 290 290 290 290 290 290 290 290 290 290 290 290 290 290 290 290 289 289 289 289 289 289 289 289 288 288 288 288 288 288 288 288 288 288 288 288 288 288 288 288 288 288 288 288 288 288 288 288 288 288 288 288 288 288 288 287 287 287 288 288 288 288 289 289 289 289 290 290 290 290 290 289 289
291 291 291 291 291 291 291 291 291 291 291 290 290 289 289 289 289 290 290 290 290 290 290 290 289 288 290 290 289 289 289 288 288 288 288 288 288 288 287 287 287 288 288 288 288 288 288 288 288 288 288 288 288 288 288 288 288 288 288 288 288 288 287 287 287 287 287 287 287 287 287 287 288 288 288 288 288 289 289 289 289 289 289 289 288 288
290 290 290 290 290 290 290 291 291 291 291 291 291 291 290 290 290 290 290 290 290 289 289 289 288 287 288 289 289 289 288 288 288 288 288 288 288 287 287 287 287 287 287 287 287 288 288 288 288 288 288 288 288 288 288 288 288 288 288 288 287 287 287 287 287 287 287 287 287 287 287 287 287 287 288 288 288 288 288 288 288 288 288 288 288 288
290 290 290 290 290 290 290 291 291 291 292 292 291 291 291 291 290 290 290 289 289 289 289 289 289 289 289 289 289 289 288 288 287 287 287 288 288 287 287 287 287 287 287 287 287 287 288 287 287 288 288 288 287 287 287 287 287 287 287 287 287 286 286 286 286 287 287 287 287 287 287 287 288 288 288 288 288 288 288 288 288 288 288 288 288 288
291 291 291 291 291 291 291 291 291 291 291 291 291 291 290 290 290 289 289 289 289 289 289 289 289 289 289 288 288 288 287 287 287 287 287 287 287 287 287 287 287 287 287 287 286 286 287 287 287 287 287 287 287 287 287 287 287 287 286 286 286 286 286 286 286 287 287 287 287 287 288 288 288 288 288 288 288 288 288 288 288 288 288 288 288 288
291 291 291 291 291 291 291 291 291 290 290 290 290 290 290 289 289 289 289 289 289 289 289 289 288 288 288 288 287 286 286 287 287 287 287 287 287 287 287 287 287 286 286 286 285 285 285 286 287 287 287 287 286 286 286 286 286 286 286 286 286 286 286 286 287 287 287 288 288 288 288 288 288 288 288 288 288 288 288 288 288 288 288 288 288 289
290 290 290 290 290 290 290 290 290 290 290 290 289 289 289 289 289 289 289 289 289 288 288 288 288 288 288 288 287 286 287 287 287 287 287 287 287 286 286 286 286 286 286 286 286 285 284 284 286 286 286 286 286 286 286 286 286 285 286 286 286 286 286 286 287 287 288 288 288 288 288 288 288 288 288 288 288 288 288 288 288 288 288 288 288 289
289 289 289 289 289 289 289 289 289 289 289 289 289 289 288 288 288 288 288 288 288 288 288 288 288 287 287 288 287 287 288 287 287 287 286 286 286 286 286 286 286 286 286 286 286 285 284 285 285 285 285 285 285 285 285 285 285 285 285 285 286 286 286 287 287 287 288 288 288 288 288 288 288 288 288 288 288 288 288 288 288 288 288 288 288 289
288 288 288 288 288 288 288 288 288 288 288 288 288 288 288 288 288 287 287 287 287 287 287 287 287 287 287 287 287 287 287 287 287 286 286 286 286 286 286 286 286 286 286 286 285 285 285 285 285 285 284 284 284 284 285 285 285 285 285 285 285 286 286 287 287 287 288 288 288 288 288 288 288 288 288 288 288 288 288 288 288 288 288 288 288 288
287 287 287 287 287 287 287 287 287 287 287 287 287 287 287 287 287 287 287 287 287 287 287 287 287 287 286 286 286 286 286 286 286 286 286 286 286 286 286 285 285 285 285 285 285 285 285 285 285 285 285 284 284 284 284 285 285 285 285 285 285 286 286 286 287 287 287 287 287 287 288 288 288 288 288 288 288 288 288 288 288 288 288 288 288 288
287 287 287 287 287 287 287 287 287 287 287 287 287 287 286 286 286 286 286 286 286 286 286 286 286 286 286 286 286 286 286 286 286 286 286 286 286 286 285 285 285 285 285 285 285 285 285 285 285 285 284 284 284 284 284 285 285 285 285 285 285 286 286 286 286 286 286 287 287 287 287 287 287 288 288 288 288 288 288 288 288 288 288 288 288 288
287 287 287 287 287 287 287 286 286 286 286 286 286 286 286 286 286 286 286 286 286 286 286 286 286 286 286 286 286 286 285 285 285 286 286 286 285 285 285 285 285 285 285 285 285 285 285 285 284 284 284 284 284 284 284 285 285 285 285 285 285 285 286 286 286 286 286 286 287 287 287 287 287 288 288 288 288 288 288 288 289 289 288 288 288 288
287 287 287 286 286 286 286 286 286 286 286 286 286 286 286 286 286 286 286 286 285 285 285 285 285 285 285 285 285 285 285 285 285 285 285 285 285 285 285 285 285 285 285 285 285 285 285 285 284 284 284 284 284 284 285 285 285 285 285 285 285 285 285 286 286 286 286 286 287 287 287 287 287 288 288 288 288 288 288 289 289 289 289 289 288 288
286 286 286 286 286 286 286 286 286 286 286 286 285 285 285 285 285 285 285 285 285 285 285 285 285 285 285 285 285 285 285 285 285 285 285 285 285 285 285 285 285 285 285 285 284 285 285 285 285 285 285 285 285 285 285 285 285 285 285 285 285 285 286 286 286 286 286 286 287 287 287 287 287 288 288 288 288 288 288 288 289 289 289 288 288 289
286 286 286 286 286 286 286 286 285 285 285 285 285 285 285 285 285 285 285 284 284 284 285 285 285 285 285 285 285 285 285 285 285 285 285 285 285 285 285 285 285 285 285 285 285 285 285 285 285 285 285 285 285 285 285 285 285 285 285 285 285 285 285 286 286 286 286 287 287 287 287 287 288 288 288 288 288 288 288 288 288 288 288 288 288 288
286 286 285 285 285 285 285 285 285 285 285 285 285 285 284 284 284 284 284 284 284 284 284 284 284 284 284 284 284 284 284 284 284 284 284 285 285 285 285 285 285 285 285 285 285 285 285 285 285 285 285 285 285 285 285 285 285 285 285 285 285 285 285 286 286 286 286 287 287 287 287 287 287 288 288 288 288 288 288 288 288 288 288 288 288 288
285 285 285 285 285 285 285 285 285 285 285 285 284 284 284 284 284 284 284 284 284 284 284 284 284 284 284 284 284 284 284 284 284 284 284 284 284 284 285 285 285 285 285 285 285 285 285 285 285 285 285 285 285 285 285 285 285 285 285 285 285 285 285 286 286 286 286 287 287 287 287 287 287 287 287 287 288 288 288 288 288 288 288 288 288 288
285 285 285 285 285 285 284 284 284 284 284 284 284 284 284 284 284 284 284 284 284 284 284 284 284 284 284 284 284 284 284 284 284 284 284 284 284 284 284 284 284 285 285 285 285 285 285 285 285 285 285 285 285 285 285 285 285 285 285 285 285 285 286 286 286 286 286 287 287 287 287 287 287 287 287 287 287 288 288 288 288 288 288 288 288 288
284 284 284 284 284 284 284 284 284 284 283 283 284 284 283 284 284 284 284 284 284 283 283 283 284 284 284 283 283 284 284 284 284 284 284 284 284 284 284 284 284 284 285 285 285 285 285 285 285 285 285 285 285 285 285 285 285 285 285 285 285 285 286 286 286 286 286 287 287 287 288 287 287 287 287 287 287 287 287 287 287 288 288 288 288 288
284 284 284 284 284 284 284 284 283 283 283 283 283 283 283 283 283 284 283 283 283 283 283 283 283 283 283 283 283 283 283 284 284 284 284 284 284 284 284 284 284 284 284 285 285 285 285 285 285 285 285 285 285 285 285 285 285 285 285 285 285 285 286 286 286 286 286 287 287 288 288 288 287 287 287 287 287 287 287 287 287 287 288 288 288 288
284 284 283 284 284 284 283 283 283 283 283 283 283 283 283 283 283 283 283 283 283 283 283 283 283 284 284 284 284 284 284 284 284 284 284 284 284 284 284 284 284 284 284 284 284 284 284 285 285 285 285 285 285 285 285 285 285 285 285 285 285 285 285 286 286 286 286 287 287 287 287 287 287 286 286 286 287 287 287 287 287 287 288 288 288 288
283 283 283 283 283 283 283 283 283 283 283 283 283 283 283 282 282 282 282 283 283 283 284 284 284 284 284 284 284 284 284 284 284 283 283 283 283 283 284 284 284 284 284 284 284 284 284 284 284 285 285 285 285 285 285 285 285 285 285 285 285 285 286 286 286 287 287 287 287 287 287 287 286 286 286 286 287 287 287 287 288 288 288 288 289 289
283 283 283 283 283 283 283 283 283 283 282 282 282 282 282 282 282 282 283 283 283 283 284 284 284 284 284 284 284 284 283 283 283 283 283 283 283 283 283 284 284 284 284 284 284 284 284 284 285 285 285 285 284 284 285 285 285 285 285 285 285 285 285 286 286 287 287 287 287 287 287 287 286 286 286 287 287 287 287 288 288 288 289 289 289 289
283 283 283 283 283 282 282 282 282 282 282 282 282 282 282 282 282 283 283 283 283 283 283 283 283 283 283 283 283 283 282 282 283 283 283 283 283 284 284 284 284 284 284 285 284 284 284 285 285 285 285 285 285 285 285 285 285 285 286 286 286 286 286 286 286 287 287 287 287 287 287 287 287 287 287 287 287 287 288 288 288 288 288 287 287 287
282 282 282 282 282 282 282 282 282 282 282 282 282 282 282 282 282 282 282 282 282 282 283 283 283 283 282 282 282 282 283 283 283 283 283 283 284 284 284 284 284 284 284 285 285 285 284 285 285 285 285 285 285 285 285 285 286 286 286 286 286 286 286 286 286 287 287 287 287 287 287 287 287 287 287 287 288 288 288 288 287 287 286 286 286 286
282 282 282 282 282 281 281 281 282 282 282 282 282 282 282 282 282 282 282 282 282 282 282 282 282 282 283 283 283 283 283 283 283 284 284 284 284 284 284 284 284 284 284 285 285 285 285 285 285 285 285 285 286 286 286 286 286 286 286 286 286 287 286 286 286 287 287 287 287 287 287 288 288 288 288 288 288 288 287 287 286 286 286 286 286 286
Wind_Speed
20 21 23 24 26 27 28 29 29 29 30 32 33 34 34 34 34 34 33 33 33 33 32 31 30 29 28 27 26 26 26 26 27 27 27 27 27 27 27 27 27 26 26 25 24 23 22 22 21 20 19 18 17 16 16 15 14 14 13 12 11 9 8 7 6 5 5 4 3 2 2 1 1 1 1 1 1 2 1 2 2 2 2 1 2 2
20 22 23 25 26 27 27 28 29 30 30 31 32 32 32 33 33 32 32 32 31 31 31 30 29 28 27 26 25 24 23 23 24 24 24 24 23 23 23 23 23 22 21 21 20 20 19 19 19 18 17 16 15 14 13 12 11 10 9 7 6 4 3 2 2 2 2 2 1 1 1 1 1 1 1 1 1 1 1 1 2 2 2 2 2 2
18 20 22 25 27 26 26 27 27 28 29 29 29 29 29 30 31 31 30 30 29 29 29 28 27 27 26 25 24 23 22 22 22 22 22 22 22 21 21 20 20 19 18 18 17 17 16 16 16 16 15 14 13 11 10 8 7 6 5 4 2 1 1 1 1 1 1 1 0 0 1 1 1 1 1 1 1 1 2 2 2 2 2 2 3 3
16 17 19 22 25 26 25 25 26 26 26 26 26 26 27 28 28 27 27 27 27 27 26 26 25 25 25 24 23 22 22 21 21 21 21 21 21 20 20 19 19 18 18 17 17 16 16 15 15 14 13 12 11 10 8 7 6 5 4 3 2 2 2 2 2 1 1 1 1 1 2 2 2 2 2 2 2 2 2 2 2 2 2 3 3 3
16 16 17 19 21 23 24 24 24 24 25 25 25 25 25 25 25 24 24 24 24 24 24 23 23 22 22 21 21 20 20 20 21 21 21 21 21 20 20 20 19 19 19 18 18 17 17 17 17 16 15 13 11 10 8 7 6 5 4 4 3 3 2 2 1 0 0 0 1 1 1 2 2 2 2 2 2 2 2 2 2 2 3 3 3 4
14 15 17 18 19 20 21 22 22 22 23 23 23 23 23 23 22 22 22 22 22 22 22 22 21 20 19 19 18 18 18 19 20 20 21 21 21 21 20 20 19 19 19 18 18 18 17 17 17 17 16 15 13 11 9 7 6 5 4 3 2 2 1 1 1 1 1 1 1 1 1 1 2 2 2 2 2 2 2 2 2 3 3 3 4 5
12 14 16 18 18 18 19 19 19 20 21 21 21 21 21 21 20 20 20 20 20 19 19 19 19 18 18 17 16 16 17 18 19 19 20 20 20 20 20 19 19 18 18 17 16 16 15 15 15 15 14 14 12 11 9 7 6 5 4 3 2 2 3 3 3 3 4 4 4 3 3 3 3 3 3 3 3 3 3 3 3 3 4 4 5 5
11 12 14 14 15 15 16 16 16 16 17 18 19 19 19 19 19 18 17 17 16 16 16 16 17 17 17 16 16 16 16 17 17 18 18 18 18 18 17 17 17 16 15 15 14 13 13 13 13 13 12 12 11 10 9 8 7 6 5 5 5 5 5 5 5 6 6 6 6 5 5 5 5 5 5 5 5 4 4 4 4 4 4 5 5 5
11 10 10 10 11 11 12 12 13 13 13 14 16 17 17 17 17 16 15 14 14 13 13 13 14 15 15 14 14 15 15 16 16 16 16 16 16 15 15 15 14 14 13 13 12 12 12 12 12 11 11 10 10 9 9 8 8 8 7 7 7 7 7 7 7 7 7 7 7 7 7 6 6 6 6 6 6 6 5 5 5 5 5 5 5 6
12 11 10 10 10 11 10 11 11 12 12 12 14 15 16 16 16 16 15 15 14 12 12 13 14 14 13 13 13 13 13 14 14 14 14 14 13 13 13 13 13 12 12 11 11 11 11 11 11 11 10 10 9 9 9 9 9 9 9 8 8 8 8 8 8 8 8 8 7 7 7 7 6 6 6 6 6 6 6 6 6 6 5 5 6 6
12 12 12 12 12 12 13 12 12 12 12 13 14 15 16 15 15 15 15 14 14 14 14 14 14 14 13 13 12 12 12 12 12 12 12 12 11 11 11 11 11 10 10 10 10 10 10 10 10 10 10 10 10 10 9 9 9 9 9 8 8 8 8 8 8 8 7 7 6 6 6 6 6 6 6 6 6 6 7 7 6 6 6 6 6 6
10 10 10 11 11 12 12 12 12 11 11 12 13 13 14 14 14 15 15 14 14 14 15 15 15 14 14 13 12 11 11 11 11 11 10 10 10 10 10 10 9 9 9 9 10 10 11 11 11 11 11 11 10 10 10 10 9 9 8 8 8 8 7 7 7 6 6 6 6 6 6 6 6 5 5 5 6 6 6 6 6 6 6 6 6 6
9 9 9 9 9 9 9 9 9 10 11 12 12 11 11 12 13 14 15 15 15 15 15 16 16 15 14 13 12 10 10 10 9 9 9 9 10 10 9 9 9 9 9 9 10 11 11 11 11 11 11 11 10 10 10 9 9 8 8 7 7 7 6 6 5 5 5 5 5 5 5 5 5 5 5 5 5 6 6 6 6 6 6 6 6 6
9 9 9 8 8 7 8 9 11 12 12 13 12 11 11 11 12 13 15 15 15 15 15 16 17 16 14 13 11 10 9 8 8 8 8 9 9 9 9 9 9 9 10 10 11 11 11 11 10 10 10 10 10 9 9 8 8 7 7 6 6 5 5 4 4 3 4 4 4 5 5 5 5 5 5 5 5 5 5 6 6 6 6 6 6 6
8 8 8 7 7 7 8 10 12 13 13 12 12 11 10 10 11 12 13 13 14 14 15 15 15 14 13 12 10 9 8 7 7 7 8 9 9 9 9 9 9 10 10 11 11 11 10 10 10 9 9 9 8 8 7 7 6 6 5 5 4 4 3 3 3 3 3 4 4 4 4 5 5 5 5 5 5 5 5 5 5 6 6 6 6 6
8 9 8 7 7 8 9 11 12 12 12 11 10 9 9 9 10 11 11 10 11 11 11 11 11 10 10 9 8 8 8 7 7 7 8 8 8 8 9 9 10 11 11 11 11 10 9 9 9 8 8 8 7 6 6 5 5 4 4 4 3 3 3 3 3 3 4 4 4 4 4 4 4 4 4 5 5 5 5 5 5 6 6 7 7 7
10 10 10 10 9 9 11 11 11 11 11 10 9 9 9 9 9 9 9 8 7 6 5 5 4 4 4 5 7 9 9 9 8 8 8 8 8 8 9 10 11 11 11 10 10 9 8 8 8 7 7 7 6 6 5 5 4 4 4 4 4 4 4 4 4 4 4 3 3 3 3 3 3 3 4 4 4 4 5 5 6 7 7 8 8 8
11 11 11 10 9 9 10 11 10 10 10 9 9 9 8 8 8 8 8 8 7 6 5 4 3 3 2 3 6 9 9 9 9 8 9 9 9 9 9 10 10 10 10 9 9 8 7 7 7 6 6 6 5 5 5 5 5 5 5 5 4 4 4 3 3 3 2 2 2 2 2 2 2 3 3 3 4 4 5 6 7 8 8 8 8 8
12 12 11 10 10 10 10 9 9 9 9 9 8 8 8 7 7 7 8 8 8 8 7 6 5 4 4 3 6 9 9 9 8 8 9 9 9 9 9 9 9 9 8 8 7 6 6 5 5 5 5 5 5 5 5 6 6 6 5 5 5 4 3 3 2 2 1 1 1 2 2 2 3 3 4 5 5 6 7 8 8 9 9 8 8 8
13 12 12 12 11 10 9 9 9 8 8 7 7 7 7 7 7 7 7 7 7 7 7 8 7 6 5 6 7 7 8 8 8 8 8 8 8 8 8 8 8 8 7 6 6 5 5 5 5 5 5 5 5 6 6 6 6 5 5 5 4 4 3 2 2 2 2 2 2 3 3 4 5 5 6 7 7 8 9 9 9 9 9 9 8 8
14 12 11 11 10 9 9 9 9 7 6 6 5 6 6 6 6 6 6 6 6 6 6 7 7 6 6 7 7 7 7 8 7 7 6 6 7 7 7 7 7 6 6 5 4 4 4 4 4 4 5 5 5 6 6 5 5 5 4 4 4 3 3 2 3 3 3 3 4 4 5 6 7 7 8 9 9 9 9 9 9 8 8 8 8 8
13 12 10 10 9 10 10 9 8 6 5 5 5 5 5 6 6 5 5 5 5 5 5 5 5 5 6 6 7 7 7 7 7 6 4 4 5 6 6 6 5 5 4 3 3 2 3 3 4 4 5 5 6 6 6 5 5 4 4 3 3 3 3 3 4 4 5 5 6 7 7 8 8 9 9 10 10 9 9 8 8 8 8 8 8 9
12 11 10 9 9 9 9 8 7 5 5 4 4 5 5 5 5 5 4 4 4 4 4 4 4 4 5 5 6 6 7 7 7 6 4 3 4 5 5 5 4 4 3 3 2 2 2 3 4 4 5 5 5 5 5 4 4 4 3 4 4 4 4 5 5 6 7 8 8 9 9 9 9 10 10 10 9 9 8 8 8 8 8 8 9 9
11 11 9 8 7 7 6 6 5 4 4 3 4 4 4 4 4 4 4 3 3 2 2 2 3 3 4 5 6 7 7 7 6 6 4 4 4 5 5 4 4 3 3 3 3 3 3 3 4 5 5 6 6 5 4 4 4 3 4 4 5 5 6 7 8 9 10 10 10 10 10 10 10 9 9 9 8 8 7 7 8 8 9 9 10 10
10 10 9 8 7 6 5 4 3 3 3 3 3 3 3 3 3 3 3 2 2 2 1 2 3 4 4 5 6 7 7 6 6 5 4 3 3 4 5 5 4 4 5 5 5 5 5 5 5 5 5 6 6 5 4 4 4 4 4 5 6 7 9 10 11 11 12 12 11 11 10 10 9 8 8 7 7 7 7 8 8 9 10 10 11 11
10 9 8 7 6 5 4 4 3 2 2 2 2 2 2 2 2 2 2 3 3 2 3 4 5 5 4 4 5 6 6 6 5 4 4 3 3 4 6 5 5 5 6 7 7 7 7 6 5 5 5 5 5 4 4 4 4 5 6 7 9 10 11 12 12 13 12 12 11 10 9 8 8 7 7 7 7 8 8 9 9 10 11 11 12 13
8 8 7 7 6 6 5 5 4 4 3 3 3 2 2 1 1 2 3 4 4 4 4 5 4 4 4 4 4 5 5 5 5 5 4 3 3 4 6 7 7 7 8 8 9 8 8 7 5 4 4 4 4 4 3 4 5 6 8 9 11 12 13 13 12 12 11 10 9 8 8 7 7 7 7 8 8 9 10 10 11 11 12 13 14 14
6 6 5 5 5 5 5 5 5 5 4 3 3 3 2 2 2 3 4 4 4 4 5 6 4 3 4 3 3 4 4 5 6 6 5 4 3 4 6 7 8 8 10 10 10 8 6 5 3 3 3 3 3 4 4 6 7 8 10 11 12 13 12 11 10 9 8 8 7 7 7 7 8 8 9 9 10 10 11 11 12 12 13 13 14 14
5 4 4 4 4 4 4 4 5 5 4 4 3 2 2 2 3 4 4 3 3 4 5 5 5 4 3 3 3 3 5 6 6 6 6 4 3 4 7 8 9 10 11 11 9 6 3 2 2 2 3 3 3 5 6 8 9 11 12 12 12 10 9 7 7 6 6 7 7 7 8 8 8 9 9 10 10 11 11 12 12 12 13 13 13 13
5 4 4 4 4 4 3 3 3 3 3 3 2 2 2 3 3 4 3 3 3 3 4 5 4 4 3 3 3 4 4 6 6 6 6 5 5 5 7 8 9 10 11 10 6 3 2 2 1 1 2 3 5 7 9 11 12 12 12 10 8 7 6 6 6 6 7 7 7 8 8 8 9 9 10 10 10 10 10 10 11 11 11 12 12 12
5 4 4 4 4 3 3 2 2 2 1 1 1 2 3 3 3 4 4 3 3 3 3 4 3 3 3 3 2 2 2 4 6 6 7 6 6 6 7 7 8 9 10 9 5 2 3 3 2 1 4 8 11 13 13 13 12 11 10 8 7 7 8 8 8 8 8 8 8 8 8 8 8 9 9 9 9 9 9 9 9 10 10 11 12 13
4 3 3 3 2 2 1 1 0 0 0 0 1 2 2 3 3 4 4 4 3 3 3 3 3 2 2 2 1 1 1 3 5 6 7 6 6 6 6 6 6 7 8 8 5 2 1 3 5 8 12 15 17 17 15 12 11 10 10 10 10 11 11 11 10 10 9 8 8 7 7 8 8 8 9 9 9 8 8 8 8 9 10 12 13 14
2 2 1 1 0 0 0 0 0 0 0 1 1 2 2 3 3 4 4 4 3 3 3 3 3 3 2 1 1 0 1 2 4 5 6 6 5 4 5 5 5 5 6 6 5 4 3 5 8 13 17 18 18 17 15 12 11 11 11 13 13 14 13 12 11 11 10 9 8 8 8 8 9 9 9 9 9 8 8 8 8 9 11 13 14 15
2 2 2 2 3 3 3 3 3 3 3 4 4 4 4 4 4 4 4 3 3 3 3 3 3 3 2 2 1 1 1 2 3 4 5 6 5 4 4 4 4 4 5 5 5 5 6 7 10 12 14 16 16 15 14 13 12 12 13 14 15 16 15 14 13 12 11 10 10 10 10 10 10 10 10 10 10 9 9 9 9 10 11 13 14 15
4 5 6 6 6 6 6 6 6 5 5 5 5 5 4 4 4 4 3 3 3 3 2 2 2 2 2 2 2 1 2 2 3 4 5 5 5 5 5 4 4 5 5 5 5 5 6 8 9 11 12 13 14 14 13 13 12 13 14 15 16 16 16 15 14 13 13 13 12 12 12 12 11 11 11 11 11 11 11 11 11 12 12 13 13 14
7 8 8 8 8 7 7 7 6 6 5 5 4 4 4 3 3 3 2 2 2 2 2 2 2 3 3 3 3 3 3 4 4 4 5 5 5 5 5 5 5 5 5 6 6 6 6 8 9 10 10 11 11 12 13 13 13 14 15 16 17 17 16 15 14 14 15 15 15 14 13 13 13 13 12 12 12 13 12 12 13 13 14 14 14 14
7 7 8 7 7 7 7 6 5 5 4 4 3 3 3 2 2 2 2 2 2 2 2 3 3 3 3 4 4 4 4 4 4 4 5 5 5 5 5 5 5 6 6 6 7 7 7 8 9 9 9 9 9 11 13 14 15 16 16 17 17 17 16 15 14 15 15 16 16 15 14 14 14 14 14 14 14 14 13 13 14 14 16 16 17 17
6 7 7 7 6 6 6 6 5 4 4 3 3 3 3 3 3 3 3 3 3 3 3 3 3 3 4 4 4 4 5 5 5 5 5 5 6 6 6 6 7 7 7 7 7 8 8 7 7 7 7 9 10 11 13 14 15 16 17 17 17 16 15 14 14 15 15 16 16 15 15 14 15 15 15 15 15 15 16 15 15 16 18 19 20 20
6 6 6 6 5 5 5 5 5 4 4 4 4 4 4 4 4 4 5 5 4 4 4 4 4 4 4 4 5 5 5 5 5 5 6 6 6 6 7 7 7 7 7 7 8 8 8 8 7 7 7 9 11 12 13 13 14 15 17 17 17 16 15 15 16 16 16 16 16 16 16 15 16 16 17 16 17 18 18 19 19 19 20 22 22 22
5 5 5 5 4 4 4 4 4 4 4 4 4 5 5 5 6 6 6 5 4 4 4 4 4 4 5 5 5 5 5 5 5 5 5 5 5 5 6 7 7 7 8 8 8 8 9 10 10 10 10 10 11 13 13 13 14 14 15 15 15 15 17 18 18 17 16 16 16 17 17 17 17 18 18 18 19 19 20 21 21 22 22 23 24 24
5 5 5 4 3 3 3 3 4 4 4 5 5 5 6 6 7 7 7 6 5 4 4 4 5 5 5 5 5 5 5 5 4 4 4 4 4 4 5 6 7 7 8 8 9 10 11 11 12 12 12 12 13 13 14 14 14 14 14 14 15 17 20 19 18 17 16 16 16 17 19 19 20 20 20 20 21 21 21 22 23 24 23 23 23 23
5 5 4 4 4 4 4 4 4 5 5 5 6 6 7 7 7 8 7 7 6 6 6 6 7 7 8 8 7 6 5 4 4 4 4 4 4 4 5 6 6 7 8 9 10 11 11 11 12 12 12 12 12 13 14 15 15 14 14 14 16 18 19 18 17 16 17 18 18 19 20 21 21 22 22 23 23 23 23 24 24 24 24 24 23 23
4 4 5 4 4 5 5 5 5 6 6 6 6 7 7 7 7 7 7 7 7 7 7 8 8 8 9 8 8 7 5 5 4 4 4 4 4 4 5 5 6 7 8 9 10 11 11 11 11 12 12 13 13 13 14 16 16 15 15 15 15 15 14 16 18 19 19 20 20 20 21 22 22 23 23 24 25 25 25 25 25 25 24 23 23 23
4 4 5 5 5 5 5 5 5 6 6 6 6 6 6 6 7 7 8 8 8 7 8 8 8 9 9 8 8 7 6 5 5 5 5 5 5 5 5 6 6 7 8 9 10 10 10 11 11 11 12 12 13 13 15 16 16 16 16 15 14 14 14 17 20 22 22 22 21 21 21 22 23 24 25 26 26 27 27 26 25 25 24 23 23 23
4 5 5 5 5 5 5 5 5 5 6 6 6 6 6 6 7 8 8 9 8 8 8 8 9 9 8 8 8 8 7 7 7 6 6 6 6 6 6 6 7 7 8 9 10 11 11 11 11 12 12 12 13 14 15 16 16 17 17 16 16 16 18 19 21 22 23 23 22 22 22 23 24 25 25 26 27 27 26 25 25 24 24 23 23 23
5 5 5 5 5 5 5 5 5 5 6 6 6 6 7 7 8 9 9 9 9 9 9 9 9 8 8 8 9 9 8 8 8 8 8 8 8 7 7 7 7 8 8 9 10 10 11 12 13 13 14 13 14 15 15 16 16 16 17 18 18 18 20 20 21 22 22 22 23 23 23 24 24 24 24 25 26 26 25 24 23 23 23 23 23 23
4 4 4 5 5 5 5 5 6 6 7 7 7 8 8 8 9 9 9 9 9 9 9 9 8 8 9 9 9 9 9 9 9 10 10 10 10 9 8 8 8 7 8 8 9 10 11 12 13 14 15 14 14 14 15 16 16 16 18 19 19 19 19 20 21 21 21 22 23 24 24 24 23 23 23 24 24 24 23 22 22 21 21 21 21 21
4 4 4 5 5 5 6 6 7 7 8 8 9 9 9 8 8 8 9 9 9 9 9 9 8 9 9 10 10 10 10 11 11 12 12 11 11 10 9 9 8 8 8 9 10 11 11 12 12 13 14 15 14 14 15 16 17 18 19 19 20 20 20 21 21 22 22 23 24 24 24 23 23 23 23 23 23 22 21 21 20 19 18 18 18 19
4 4 5 5 6 6 7 7 8 8 8 8 8 8 8 8 8 8 9 9 10 9 9 9 9 9 10 11 11 11 12 12 13 13 12 12 11 11 11 11 11 11 12 12 12 11 11 11 11 11 12 14 15 17 18 18 19 19 19 19 20 20 20 21 22 22 23 24 24 24 23 23 24 24 23 21 20 20 20 19 19 19 19 19 20 21
5 5 5 6 6 6 7 7 7 7 7 8 8 8 8 8 8 8 9 9 9 9 9 9 10 11 11 12 12 12 12 12 13 13 12 12 11 12 12 13 13 14 14 13 12 11 11 10 10 10 10 11 13 15 17 18 18 18 19 19 19 20 21 21 22 23 24 24 24 24 23 23 23 22 21 19 18 19 20 21 22 22 21 20 20 21
5 5 5 5 6 6 6 6 6 7 7 7 8 8 9 9 9 9 9 9 9 9 9 10 10 11 11 12 12 12 12 12 12 12 13 12 12 13 13 13 13 13 12 10 10 9 9 9 8 9 10 10 10 12 14 15 17 17 18 19 19 20 20 21 22 23 23 23 23 22 22 21 20 19 17 16 17 19 21 23 24 23 22 21 20 21
Wind_Direction
66 67 68 68 65 61 57 56 54 53 53 54 56 57 58 58 58 58 58 59 61 63 65 66 66 65 64 61 59 58 57 57 57 57 58 59 60 60 62 63 65 66 68 71 73 77 79 80 80 80 78 75 71 66 62 59 55 53 53 52 51 51 54 59 66 72 76 74 71 67 68 85 129 190 221 233 241 250 262 275 285 298 312 338 354 346
59 61 63 65 65 63 58 57 56 56 55 55 56 57 58 58 58 57 56 56 57 58 59 61 63 64 64 64 63 62 62 61 60 59 60 62 62 63 64 65 67 70 71 72 74 77 79 81 83 84 84 82 79 75 70 66 62 57 52 49 47 50 61 80 97 106 109 113 119 130 136 151 171 190 209 221 248 280 301 311 317 328 345 355 350 336
56 56 57 61 63 62 59 59 59 60 60 60 59 59 59 59 59 59 59 58 57 57 57 57 58 59 60 61 62 63 64 64 64 64 65 65 66 67 68 70 73 77 78 79 80 81 81 81 82 83 83 85 86 87 85 81 77 73 67 65 65 96 191 197 191 176 167 166 182 225 247 255 257 259 267 282 304 319 326 329 336 347 356 353 342 331
61 58 58 61 64 64 63 63 63 63 64 64 64 63 63 63 63 62 61 61 60 60 60 59 59 59 59 59 60 62 64 66 68 70 71 71 71 73 74 75 78 81 83 84 85 87 88 89 88 86 86 87 91 95 98 99 99 101 107 123 150 178 193 199 201 207 236 284 296 299 294 293 295 297 302 310 325 334 340 345 355 358 356 348 339 334
68 67 67 67 67 67 68 68 67 67 67 68 67 67 66 67 66 65 63 62 62 61 61 61 61 61 62 63 64 66 67 70 71 73 74 76 78 79 80 81 83 85 86 86 88 90 91 93 94 94 94 95 98 102 105 107 111 117 127 142 158 173 183 189 195 204 268 313 316 320 319 318 321 321 322 327 339 350 358 360 360 356 349 342 338 336
77 77 78 77 75 73 72 71 71 72 72 72 72 71 70 69 68 67 65 63 63 62 61 61 61 62 63 64 67 70 72 74 75 76 77 78 80 82 82 83 84 85 86 87 88 90 91 92 92 93 95 97 100 104 109 114 119 125 133 143 153 155 150 125 96 86 81 79 70 56 40 26 14 5 355 352 360 10 12 5 357 350 346 343 340 338
88 86 85 84 82 80 77 75 75 77 80 80 79 77 75 73 71 70 68 67 66 65 64 63 63 63 63 63 65 68 72 74 75 76 77 78 79 80 81 81 82 82 83 83 84 84 86 87 87 88 89 91 94 98 103 108 113 117 121 121 117 108 97 91 87 87 86 83 79 71 61 50 39 27 19 15 16 18 14 7 358 351 348 344 342 339
100 94 90 90 89 86 83 80 79 81 85 87 88 87 84 81 79 77 75 73 71 70 68 66 65 64 64 63 65 67 70 71 72 73 74 74 75 75 76 76 76 76 77 77 77 77 77 78 79 80 81 83 84 86 90 93 97 100 101 101 99 97 93 91 88 85 82 77 72 64 55 47 39 31 25 21 18 15 11 5 360 355 350 346 343 341
109 105 98 98 100 101 97 95 92 89 89 92 96 98 98 95 93 90 86 83 80 79 78 76 73 71 69 67 67 68 69 70 70 70 70 70 69 69 68 68 68 68 69 69 70 70 70 71 72 73 75 76 78 80 83 87 91 94 97 97 96 94 92 87 84 79 74 69 62 55 48 42 36 30 25 20 15 10 6 4 2 357 352 349 347 345
105 105 102 103 107 109 107 107 108 108 105 106 107 109 110 109 107 103 97 94 92 93 93 91 89 85 82 79 76 74 74 74 74 73 72 70 68 66 65 64 63 63 64 65 65 66 67 68 70 72 74 76 78 81 85 88 92 95 96 95 92 89 85 80 76 71 66 60 55 48 43 37 33 28 23 17 11 7 3 3 3 1 358 357 354 350
98 100 99 98 101 103 103 104 108 114 116 114 112 112 113 112 110 106 98 95 97 100 101 101 100 97 93 90 86 84 83 82 81 80 78 75 72 68 66 64 64 64 64 66 68 70 70 72 74 77 79 82 85 88 91 94 95 96 95 92 87 82 76 72 67 62 57 52 46 40 35 30 27 23 18 13 7 3 1 2 3 5 4 3 359 354
98 97 97 96 95 95 95 98 104 110 112 106 95 87 86 93 99 100 94 91 93 97 100 102 102 99 96 93 89 87 87 85 83 81 79 77 74 70 67 66 67 68 70 74 77 78 78 80 82 84 86 89 91 94 96 97 96 95 92 88 82 76 71 65 60 54 48 41 35 29 25 22 19 16 12 7 3 359 359 1 3 6 5 3 359 352
102 101 99 96 92 89 86 89 94 96 94 88 78 69 69 79 88 93 93 93 95 98 100 99 98 96 96 93 89 85 84 81 79 76 73 70 67 65 65 66 70 74 78 82 84 85 85 86 87 89 90 92 94 95 96 96 95 92 89 85 80 74 68 61 53 45 37 28 23 18 15 12 9 6 2 359 356 354 355 358 1 3 1 358 353 346
100 102 101 93 86 81 79 81 79 76 75 77 79 79 82 86 91 93 94 94 97 102 104 99 94 91 92 90 85 80 77 77 74 67 61 59 59 60 63 69 75 82 87 89 89 88 88 88 89 89 91 92 93 93 94 94 92 91 89 86 82 77 71 62 49 35 24 16 12 9 7 3 359 356 353 351 349 350 352 355 356 355 353 349 343 337
103 103 97 88 83 80 79 81 80 78 79 82 84 87 90 92 95 95 94 93 98 103 104 100 94 88 85 81 76 70 63 63 62 58 54 53 56 61 68 75 83 90 93 92 89 88 88 86 85 85 86 85 85 86 87 88 88 88 86 85 83 78 71 60 44 29 17 12 8 4 360 356 351 348 346 346 346 348 349 349 348 345 342 337 332 326
106 104 97 90 87 87 88 89 87 85 85 86 86 85 83 83 87 91 91 94 100 104 101 94 86 79 74 70 64 53 43 40 42 48 54 55 60 67 76 82 88 92 94 91 87 84 83 81 78 76 75 73 72 72 73 74 74 73 72 70 66 59 51 43 33 25 20 15 11 6 359 352 347 344 344 344 345 347 345 343 340 336 332 328 324 320
105 104 102 97 93 93 95 96 95 93 92 89 85 80 77 77 82 87 90 95 98 97 90 83 75 68 57 51 43 35 27 26 31 42 57 62 66 73 81 84 86 88 90 87 82 78 74 69 66 63 60 58 55 53 52 50 48 43 40 37 34 32 32 32 33 32 30 26 21 12 2 351 345 343 342 341 341 339 337 334 331 328 325 322 320 317
108 108 108 105 102 101 102 102 102 102 100 94 87 81 78 79 82 86 87 87 81 71 60 56 64 71 53 47 27 20 20 22 29 43 61 67 71 78 83 85 86 87 86 82 76 70 63 56 50 45 42 39 35 31 28 25 20 17 15 14 14 15 20 27 34 40 42 39 26 10 355 339 332 328 327 327 324 323 324 323 323 322 319 317 315 313
114 115 115 114 114 114 111 110 109 109 106 101 96 92 89 88 88 86 82 80 75 70 64 58 56 56 53 43 20 15 17 21 29 45 62 66 71 78 82 82 83 83 81 76 70 61 52 42 34 28 24 19 15 12 9 8 6 4 2 2 1 2 6 9 15 16 9 352 331 319 316 310 308 307 309 310 312 314 316 317 316 315 314 313 311 310
119 119 120 121 121 119 116 117 118 116 110 103 100 100 99 98 94 88 82 77 74 71 68 62 57 52 42 30 22 19 20 21 30 47 62 66 71 75 77 76 76 77 75 70 64 54 42 29 19 11 7 4 360 357 356 357 357 357 357 355 353 351 350 349 346 338 327 317 311 307 306 304 305 306 307 308 310 313 314 314 314 313 312 310 310 310
124 124 128 130 129 124 120 119 115 107 100 95 95 99 101 102 97 91 85 80 76 73 67 60 53 46 41 30 25 23 23 23 32 47 63 70 72 72 72 71 73 74 73 68 57 43 28 15 4 358 356 353 349 346 345 346 348 349 350 347 344 341 335 329 324 319 314 312 309 308 307 309 309 310 310 312 312 313 313 314 314 313 313 312 313 314
125 124 128 132 131 127 122 118 114 105 96 93 94 99 103 106 102 97 91 85 78 72 64 57 50 46 43 36 32 30 27 30 38 49 65 74 72 70 71 68 69 73 71 64 48 27 11 2 353 348 345 341 338 336 336 336 335 334 334 331 327 323 317 314 312 310 309 308 309 310 310 311 312 313 313 313 314 314 314 315 316 317 318 319 319 319
119 118 120 123 124 123 121 119 115 108 97 93 90 91 97 107 109 105 99 90 80 73 63 55 51 49 50 47 45 41 37 38 44 53 64 71 70 67 65 62 63 63 54 37 16 355 342 344 342 338 332 328 327 327 328 325 321 318 318 319 316 313 311 309 308 309 309 310 311 312 312 313 313 313 313 314 314 316 318 319 320 322 323 323 322 320
112 112 113 114 115 115 116 113 109 102 93 86 84 86 93 101 106 107 102 96 87 75 60 53 58 66 70 70 64 55 47 42 44 51 61 62 65 63 54 51 50 44 25 2 342 328 320 327 330 327 320 314 310 310 312 310 308 310 318 322 320 315 313 310 310 309 310 310 312 312 312 312 312 312 313 315 318 321 322 323 324 323 323 321 318 313
108 108 108 107 108 107 106 101 94 86 74 68 70 78 86 95 99 100 100 98 87 78 72 81 81 81 82 85 73 59 48 39 35 42 60 56 61 59 43 34 26 17 360 343 328 319 316 321 324 320 311 305 299 295 294 297 303 309 317 318 318 315 313 311 310 310 309 309 310 310 309 310 311 312 315 319 322 323 324 323 323 321 319 314 309 304
104 104 103 104 105 104 96 85 69 53 40 37 43 54 64 71 79 86 88 78 67 63 74 85 83 80 84 81 65 52 43 34 27 32 49 58 74 65 38 26 14 360 346 334 325 320 320 323 322 314 301 290 285 282 283 292 301 309 311 312 312 311 310 309 308 307 307 306 305 305 304 306 309 313 316 318 321 321 320 319 318 317 314 309 304 301
108 110 112 113 114 111 103 89 74 55 39 32 28 26 25 26 52 73 69 55 42 42 61 77 77 72 74 69 54 44 40 36 35 39 46 61 78 66 37 23 11 355 341 333 327 324 324 324 319 304 282 270 265 268 281 292 298 303 306 307 308 308 307 306 305 303 302 300 299 299 300 303 307 309 312 314 316 316 316 314 314 313 310 307 304 302
118 120 123 123 122 120 117 108 96 83 72 64 54 41 26 16 50 68 63 47 32 38 59 73 76 63 50 46 40 39 45 45 46 46 49 57 68 55 29 19 8 355 345 338 330 323 322 318 305 280 261 254 260 274 290 295 298 300 302 303 305 305 305 304 301 299 298 297 296 296 297 299 302 305 307 310 312 313 313 313 313 311 309 308 307 307
122 124 125 123 121 120 121 121 115 108 101 93 82 62 35 28 52 67 64 44 38 49 63 68 71 66 48 29 31 50 59 51 45 40 34 39 47 37 19 15 7 357 351 347 339 326 316 301 274 254 250 264 284 295 297 298 298 300 301 302 304 306 308 307 307 304 302 300 298 297 298 300 302 305 308 310 312 313 314 315 316 314 313 312 311 311
125 129 129 127 123 121 120 121 120 117 108 97 81 57 35 30 42 53 51 43 46 63 75 77 74 65 50 29 31 48 58 47 37 25 15 21 27 22 13 13 8 2 360 360 357 344 317 305 258 222 263 298 304 304 302 303 303 304 306 308 312 321 327 327 324 317 311 307 304 302 303 305 308 311 313 315 317 317 319 320 321 320 319 316 315 313
126 128 126 125 126 128 128 126 122 118 106 76 48 35 31 33 39 45 47 46 51 66 83 91 87 73 56 53 49 46 39 40 27 11 3 7 12 10 7 13 10 5 5 13 23 12 318 315 317 311 306 308 307 307 309 312 315 318 322 326 333 340 342 338 331 323 317 313 311 311 312 314 316 319 321 322 323 324 325 327 329 328 325 322 321 319
133 130 126 127 132 141 147 153 182 218 286 344 22 34 41 48 53 54 55 52 51 56 72 85 87 80 70 77 120 172 72 38 16 3 357 1 2 360 360 8 10 6 6 13 22 26 311 307 314 314 312 312 313 315 320 327 334 338 339 337 335 337 341 338 333 328 323 320 319 320 322 324 327 328 329 330 330 331 333 335 337 336 331 327 324 322
138 132 127 123 129 142 242 250 226 157 118 97 86 79 75 74 71 69 66 61 56 54 60 68 75 78 75 75 114 163 45 17 3 356 353 354 356 356 353 360 2 1 360 1 357 341 304 299 306 311 314 316 318 323 329 337 342 342 338 333 331 332 337 338 335 332 329 327 328 330 333 334 335 335 336 337 338 338 339 340 341 338 333 327 323 320
115 102 96 93 92 95 97 101 104 104 104 103 102 99 95 90 85 80 74 68 61 55 53 57 60 64 66 70 67 28 349 356 351 348 347 344 344 345 341 343 343 342 342 339 334 322 304 299 303 309 312 315 318 322 328 334 337 335 331 328 327 329 333 337 337 336 335 334 335 337 340 341 341 341 342 343 343 342 342 341 340 336 330 324 319 316
97 95 95 93 92 92 92 94 96 98 100 101 100 98 96 92 88 81 75 68 60 51 41 33 30 28 30 37 32 5 342 335 338 340 340 336 335 332 326 321 322 324 324 321 319 315 305 302 304 307 310 313 315 317 322 327 329 327 325 325 325 328 332 335 337 336 336 336 336 338 341 343 343 344 345 345 344 342 340 338 335 332 328 323 318 313
87 87 87 86 85 84 85 85 87 89 91 91 91 88 85 80 76 70 62 53 43 30 17 2 351 344 341 345 346 341 334 328 327 329 329 327 324 321 315 309 309 312 312 310 309 307 305 304 305 306 307 309 311 313 317 321 322 321 321 322 324 327 331 334 336 335 334 333 333 335 338 341 342 343 344 343 342 339 336 334 332 331 328 325 321 315
75 75 77 77 77 77 77 76 75 74 73 70 65 57 51 44 37 31 21 10 358 346 336 331 326 322 320 318 320 322 321 319 318 317 315 312 311 309 304 300 299 301 302 302 304 305 305 304 305 305 304 303 304 308 313 317 318 318 318 319 321 324 327 331 332 331 329 328 329 332 335 338 339 340 341 340 338 335 333 331 331 330 329 326 323 319
63 66 70 72 73 72 68 64 58 51 44 37 27 15 4 357 350 348 341 333 325 317 312 310 309 310 310 311 311 310 308 309 308 306 301 297 297 296 294 292 293 293 293 293 295 296 297 298 300 302 301 300 300 303 307 312 314 315 315 316 317 319 322 325 327 326 325 325 327 330 333 336 336 336 336 336 334 332 330 329 330 330 328 326 324 321
52 58 66 70 68 63 56 48 40 30 19 9 357 348 340 334 331 327 324 321 315 308 303 300 299 299 300 301 302 302 300 300 300 297 293 289 287 285 286 288 289 291 290 289 289 288 285 283 285 289 296 299 301 303 305 307 309 312 315 316 316 316 317 321 322 322 323 324 326 329 332 334 333 332 330 331 329 327 326 326 326 326 326 324 322 320
46 53 61 62 57 48 38 30 21 11 2 353 344 337 333 329 326 324 324 323 320 317 312 305 301 299 297 297 299 301 303 301 298 295 292 287 283 280 280 282 285 287 288 287 285 282 278 274 274 278 284 291 297 300 302 303 305 309 314 315 313 312 313 316 318 319 322 324 326 327 328 330 329 327 326 325 324 322 321 320 320 321 321 319 317 316
42 45 47 44 35 24 12 1 353 347 344 341 338 335 334 334 334 336 337 340 346 350 346 331 321 317 313 312 316 321 325 325 320 313 306 301 290 281 278 278 280 284 285 285 284 280 276 272 271 272 277 283 289 294 296 297 300 304 307 307 305 306 309 311 314 317 321 323 325 325 324 323 322 322 322 320 319 317 316 314 313 314 315 314 312 309
24 23 20 13 4 354 343 333 328 325 324 327 331 336 340 342 344 345 346 348 350 349 345 338 332 330 328 330 333 337 343 343 339 332 324 316 306 292 283 280 280 284 287 289 289 286 281 276 272 271 274 280 286 291 293 294 296 298 299 299 302 305 308 309 313 317 318 320 322 323 320 318 316 316 316 315 313 312 312 310 308 307 307 307 306 304
352 347 345 340 332 323 316 314 316 318 320 325 331 338 344 347 346 343 341 342 341 339 338 337 332 330 331 333 337 340 344 343 339 332 327 323 316 303 292 287 284 284 287 291 294 293 289 285 279 275 278 282 284 286 289 292 294 295 295 296 301 304 306 305 310 315 317 318 319 319 317 314 313 312 311 309 307 307 306 305 303 302 301 301 300 298
331 331 332 328 321 316 315 319 324 327 331 338 342 344 345 343 341 339 340 341 338 334 334 335 333 331 333 335 335 336 335 334 331 329 327 328 326 318 305 296 290 288 288 292 294 294 293 289 284 283 285 285 283 282 285 288 291 293 293 293 293 292 291 295 302 307 310 313 315 316 315 313 310 308 305 303 301 301 300 299 299 299 298 298 296 294
350 347 343 339 335 333 335 337 338 337 339 341 342 341 339 335 333 335 339 340 337 335 337 336 333 332 330 328 328 328 327 328 328 329 330 330 328 324 315 306 298 293 291 292 293 294 292 288 286 287 288 285 281 279 279 283 286 289 289 289 288 286 285 289 295 299 302 305 308 311 311 309 305 302 298 297 296 295 295 295 295 295 295 295 293 290
351 346 340 335 331 328 328 329 332 334 333 333 335 336 332 326 325 327 331 333 334 334 335 334 332 327 322 321 322 324 326 328 330 330 330 330 327 323 318 312 306 300 297 295 292 290 287 287 287 287 286 283 279 276 275 277 280 283 284 286 287 287 288 290 293 295 298 299 301 303 305 303 300 295 292 291 291 292 292 292 291 291 291 291 289 286
333 326 321 321 321 323 326 326 327 327 326 328 330 331 328 325 324 325 328 330 330 331 332 332 330 324 321 320 323 326 329 330 329 327 326 325 324 322 322 319 316 311 304 299 294 290 286 287 287 286 283 280 277 274 274 273 273 275 278 282 285 287 288 289 292 296 296 295 295 296 299 297 293 290 288 288 289 289 289 289 289 288 288 288 287 285
311 309 312 314 318 322 325 324 324 324 325 324 325 326 327 327 328 328 328 330 331 332 332 331 329 324 323 323 324 326 326 325 322 321 322 322 322 323 327 327 326 322 317 310 305 300 295 291 288 284 280 274 270 269 272 272 272 273 275 280 283 283 284 287 291 295 295 293 292 293 292 289 286 285 286 286 287 287 287 288 289 289 289 289 289 289
299 301 306 309 310 312 316 317 318 320 321 322 323 324 326 329 331 331 329 331 332 332 332 330 327 323 320 320 320 320 320 318 317 317 319 321 322 323 325 325 323 320 317 316 314 310 305 299 292 285 278 273 267 265 269 273 275 278 279 280 280 280 280 284 288 291 291 290 290 290 289 287 285 284 284 282 282 285 288 291 292 292 292 291 289 288
292 294 297 302 304 306 308 313 315 317 320 322 324 325 325 329 331 330 329 329 329 329 328 325 321 317 314 313 315 317 316 315 314 314 315 317 317 316 315 315 314 314 315 316 317 317 314 308 302 294 283 276 271 268 268 273 278 282 281 280 279 279 278 280 283 286 288 287 288 289 288 287 286 284 281 279 281 288 293 295 295 295 294 293 290 289
292 292 294 297 300 304 308 312 316 318 319 321 322 323 324 325 325 325 323 323 323 323 321 319 315 310 307 307 309 311 310 309 307 307 308 310 310 309 309 310 311 312 312 313 313 314 315 313 309 306 300 291 281 274 271 272 276 279 278 278 279 279 277 276 279 282 285 286 287 287 286 284 283 281 280 282 289 295 297 297 296 296 296 296 295 293